Location: downtown San Diego
(32.7310°N, 117.1990°W)
Time: 17:16:36
(UTC-07:00)

DMSP B5D2-2 - Pass Details

Date: 19 May 2017
Orbit: 791 x 806 km, 98.5° (Epoch: 21 September)

Event Time Altitude Azimuth Distance (km) Brightness Sun altitude
Rises 22:29:34 0° 12° (NNE) 3,325 7.9 -28.1°
Reaches altitude 10° 22:31:55 10° 12° (NNE) 2,390 7.0 -28.4°
Enters shadow 22:36:35 70° 7° (N) 853 4.2 -28.9°
